Flag for USA

Past Weather in Oklahoma City, Oklahoma, USA — Yesterday and Last 2 Weeks

Currently: 43 °F. Fog. (Weather station: Will Rogers World Airport, USA). See more current weather

Past Weather in Oklahoma City — Graph

°F

Oklahoma City Temperature Yesterday

Maximum temperature yesterday: 50 °F (at 2:52 am)
Minimum temperature yesterday: 41 °F (at 9:20 pm)
Average temperature yesterday: 47 °F

High & Low Weather Summary for the Past Weeks

 TemperatureHumidityPressure
High60 °F (Jan 18, 12:52 pm)100% (Jan 21, 8:36 am)30.51 "Hg (Jan 21, 8:36 am)
Low21 °F (Jan 13, 7:52 am)21% (Jan 17, 3:52 pm)29.57 "Hg (Jan 25, 4:35 am)
Average41 °F68%30.06 "Hg
* Reported Jan 10 10:02 am — Jan 25 10:52 am, Oklahoma City. Weather by CustomWeather, © 2021

Note: Actual official high and low records may vary slightly from our data, if they occured in-between our weather recording intervals... More about our weather records

Oklahoma City Weather History for the Previous 24 Hours

Scroll right to see more
 ConditionsComfort  
Time TempWeatherWind HumidityBarometerVisibility
10:52 am
Mon, Jan 25
42 °FDrizzle. Fog.9 mph96%29.67 "Hg1 mi
9:52 am41 °FDrizzle. Fog.12 mph96%29.66 "Hg1 mi
9:24 am40 °FDrizzle. Fog.9 mph100%29.65 "Hg1 mi
9:19 am40 °FFog.10 mph97%29.64 "Hg1 mi
8:52 am40 °FDrizzle. Fog.10 mph97%29.64 "Hg1 mi
8:25 am39 °FDrizzle. Fog.13 mph100%29.64 "Hg1 mi
8:07 am39 °FDrizzle. Fog.10 mph100%29.62 "Hg0 mi
6:52 am40 °FDrizzle. Fog.14 mph100%29.62 "Hg1 mi
5:52 am43 °FFog.7 mph97%29.60 "Hg1 mi
5:43 am43 °FFog.8 mph97%29.58 "Hg2 mi
4:52 am42 °FPassing clouds.8 mph96%29.58 "Hg10 mi
4:42 am42 °FPassing clouds.8 mph96%29.58 "Hg10 mi
4:35 am42 °FPartly cloudy.8 mph96%29.57 "Hg10 mi
3:52 am42 °FPartly cloudy.12 mph96%29.62 "Hg10 mi
3:31 am42 °FThunderstorms. Fog.12 mph96%29.65 "Hg2 mi
3:06 am41 °FThundershowers. Mostly cloudy.20 mph93%29.61 "Hg10 mi
2:52 am41 °FThunderstorms. Mostly cloudy.23 mph93%29.64 "Hg10 mi
2:26 am41 °FThunderstorms. Fog.18 mph93%29.61 "Hg5 mi
2:17 am42 °FStrong thunderstorms. Fog.25 mph92%29.61 "Hg2 mi
2:09 am43 °FStrong thunderstorms. Fog.17 mph100%29.72 "Hg3 mi
1:43 am44 °FThunderstorms. Fog.16 mph96%29.64 "Hg2 mi
12:52 am46 °FLight rain. Fog.9 mph96%29.62 "Hg2 mi
11:52 pm
Sun, Jan 24
46 °FLight rain. Low clouds.13 mph96%29.65 "Hg7 mi
11:44 pm46 °FLight rain. Fog.13 mph93%29.65 "Hg6 mi
11:08 pm44 °FThunderstorms. Fog.16 mph96%29.65 "Hg5 mi
10:58 pm44 °FLight rain. Fog.15 mph96%29.67 "Hg3 mi
10:37 pm45 °FThunderstorms. Fog.14 mph93%29.71 "Hg2 mi
9:52 pm42 °FOvercast.12 mph96%29.72 "Hg10 mi
9:20 pm41 °FLight rain. Fog.15 mph96%29.76 "Hg6 mi
8:52 pm42 °FThunderstorms. Fog.10 mph96%29.81 "Hg2 mi
8:16 pm42 °FLight rain. Fog.12 mph96%29.80 "Hg3 mi
7:52 pm43 °FLight rain. Fog.8 mph97%29.82 "Hg4 mi
6:52 pm45 °FDrizzle. Low clouds.8 mph86%29.81 "Hg10 mi
5:52 pm46 °FOvercast.10 mph79%29.83 "Hg10 mi
4:52 pm47 °FLight rain. Mostly cloudy.12 mph77%29.84 "Hg10 mi
3:52 pm47 °FOvercast.13 mph71%29.85 "Hg10 mi
2:52 pm47 °FOvercast.13 mph71%29.88 "Hg10 mi
1:52 pm46 °FOvercast.13 mph73%29.91 "Hg10 mi
12:52 pm45 °FOvercast.13 mph80%29.94 "Hg10 mi
Weather by CustomWeather, © 2021

See weather overview